OBJECT DM, 66773

Orbit data source: Space-Track

You're viewing an Uncataloged Satellite

Recently launched and/or uncataloged satellites may have evolving metadata. Metadata may include but not limited to: Owner, Maufacturer, Bus, Motor, and Mission.

OBJECT DM, 66773 is a satellite in SSO that was launched on Fri, 28 Nov 2025 UTC via an FALCON 9 launch vehicle from the Air Force Western Test Range (AFWTR). Unknown objects in Earth's orbit typically refer to objects detected orbiting the Earth but have not yet been identified or cataloged. These objects could be anything from previously untracked satellites, spent rocket stages, debris from satellite collisions, or even natural meteoroids temporarily captured by Earth's gravity.

Loading next visibility...
Identifier
66773, 2025-276DM
Orbit
SSO
Country
Flag of TBDTBD
Related business
None
Manufacturer
Unknown
Mission
Operational Commercial Communications
Bus & Motor
Unknown
Mass
Unknown
Launch date (UTC)
2025-11-28 (6 months ago)
Launch vehicle
FALCON 9
Launch site
Air Force Western Test Range (AFWTR)
Object type
Unknown
Shape & HBR
Box, 0.2 m
Radar Cross Section
0.100 m²

Expand to show TLE details & history
Last TLE update: 13 hours ago

TLE from 13 hours ago
0 OBJECT DM
1 66773U 25276DM  26144.65503763  .00003585  00000-0  16823-3 0  9997
2 66773  97.4222 218.8917 0000622  24.1608 335.9656 15.20285751 26869
Epoch: 2026-05-24T15:43Z
TLE epoch observation values (Epoch: 2026-05-24T15:43:15.251Z)
Latitude
-0.00004°
Longitude
100.82409°
Altitude
507.677 km
Speed
7.61 km/s
True Right ascension
14h 35m 34s
True Declination
0° 00' 00"
Sunlit
Object was in full shadow at epoch
Visualization orbit readout
Latitude
Unknown
Longitude
Unknown
Altitude
Unknown
Speed
Unknown
Apparent Right ascension
Unknown
Apparent Declination
Unknown
Sunlit
N/A
Visualization observer readout
Local Sidereal Time
14:14:07
Azimuth
Unknown
Elevation
Unknown
Doppler factor
Unknown
Orbital elements
Apogee altitude
502.372 km
Perigee altitude
501.516 km
Semi-major axis
6,880.081 km
Eccentricity
0.00006
Inclination
97.4222°
RAAN
218.8917°
Arg. of periapsis
24.1608°
True anomaly
335.9627°
Mean anomaly
335.9656°
Eccentric anomaly
335.96415°
Mean motion
3.80323 °/min
Orbital period
94.66 mins
BSTAR
0.00016823
Loading maneuver chart data...
Computing Atmospheric mass density...
Loading historical data...
Loading historical data...
Loading historical data...
Loading historical data...
Loading historical data...
Loading historical data...
Loading historical data...

Documentation

Showing up to 5 results
|